Temp
6 6 5 5 5 7 8 10 13 9 9 14 13 14 12 11 13 14 14 14 15 15 15 15 16 16 16 15 15 15 16 15 14 16 15 14 15 16 16 14 14 13 12 14
5 5 5 5 5 6 7 10 11 10 10 14 14 13 12 12 12 13 13 14 14 14 14 14 15 15 14 14 14 15 15 15 14 17 14 13 14 15 15 15 14 12 13 16
5 5 5 5 5 6 6 11 12 12 12 11 11 11 12 12 12 12 12 13 13 13 14 15 14 14 14 13 13 12 13 14 14 14 16 16 14 15 15 15 13 14 15 16
5 5 5 5 5 6 6 10 11 10 12 11 11 11 11 11 11 12 12 12 11 11 11 13 13 13 13 14 13 13 13 13 14 14 14 13 13 13 14 13 14 13 15 16
5 5 5 5 5 6 7 10 10 10 11 10 10 10 11 11 11 11 12 11 9 10 10 11 10 9 11 12 13 13 13 12 13 12 13 14 12 13 14 15 15 14 15 15
4 5 5 5 5 5 7 5 6 8 9 10 10 11 10 8 8 9 9 8 8 9 10 10 10 10 10 10 10 10 11 10 10 10 13 13 13 16 16 16 15 16 14 16
4 4 4 4 4 5 5 5 7 8 9 9 10 9 8 8 9 8 9 9 9 10 10 10 10 10 10 10 11 11 10 11 10 9 11 11 17 16 16 16 16 16 15 15
5 4 4 4 4 4 5 4 6 7 8 9 8 8 8 8 9 8 8 8 9 9 8 8 10 12 11 11 12 12 12 11 10 10 12 14 15 14 15 15 15 15 14 15
5 4 4 4 4 4 4 4 4 6 6 8 8 7 7 7 8 8 8 9 8 8 8 9 8 10 12 12 10 9 9 11 11 11 9 12 14 14 14 15 15 14 14 14
4 4 4 4 4 4 4 4 4 5 5 7 7 7 7 8 7 7 8 8 7 8 8 8 9 10 12 10 11 10 8 8 8 10 10 12 15 13 13 14 13 13 14 14
4 4 4 4 4 4 4 3 3 3 3 5 5 6 6 7 6 6 8 7 7 7 7 8 10 10 11 9 11 11 10 9 8 8 8 9 13 14 13 12 13 13 13 13
3 3 3 3 4 4 4 3 2 2 3 5 4 5 5 6 6 6 6 6 7 7 6 7 7 7 8 9 8 11 10 12 11 11 12 13 13 12 13 12 12 12 12 12
3 3 3 3 2 3 3 3 2 2 3 4 5 5 5 4 4 4 5 6 6 6 7 6 6 5 7 6 8 10 10 10 9 10 12 13 12 12 13 13 12 12 12 12
3 2 2 2 2 2 2 2 2 2 3 2 5 4 4 4 4 4 4 5 5 6 5 4 5 5 6 6 7 8 9 9 8 9 10 11 12 14 13 13 12 12 12 11
2 2 2 2 2 2 2 1 1 1 2 3 3 4 4 4 4 3 4 4 5 5 4 4 4 5 5 6 6 6 7 7 7 8 10 11 11 12 11 11 11 11 11 10
2 2 1 1 1 1 2 2 1 1 1 2 2 4 3 3 3 4 4 4 4 4 3 2 4 5 5 4 5 7 8 9 9 8 9 9 9 9 10 10 10 10 10 10
1 1 1 1 1 1 2 3 2 1 1 2 1 2 4 3 3 4 4 4 4 3 2 2 4 5 5 4 3 6 7 8 8 9 9 8 9 9 10 9 10 10 10 9
1 1 1 1 1 1 1 1 1 1 1 2 1 1 2 3 4 4 4 4 3 2 2 4 4 5 4 2 5 7 8 8 8 8 9 8 9 9 9 9 9 9 9 9
1 1 1 1 0 1 1 0 0 0 1 1 1 1 2 4 4 4 4 4 2 4 2 3 5 4 3 5 6 4 4 4 4 4 5 6 7 8 9 9 8 8 9 9
1 1 1 1 0 -0 0 0 1 1 1 1 1 2 1 3 3 2 3 4 4 3 4 5 3 4 6 3 2 2 2 2 2 1 1 3 4 5 6 7 8 9 9 9
0 -0 0 -1 -0 -0 1 -0 -0 0 0 2 1 2 2 4 1 2 3 3 4 3 5 4 5 5 1 2 1 1 1 1 1 1 2 2 2 3 3 4 5 7 8 8
-0 -0 -1 -1 -0 -1 -1 -1 -1 -1 1 2 2 2 2 2 2 1 2 2 3 3 4 4 5 1 0 -0 -0 -0 -0 -0 -0 -0 0 1 1 2 2 3 3 5 7 7
-1 -1 -1 -1 -2 -1 -1 -1 0 1 1 1 1 0 1 1 1 2 2 2 2 5 4 6 2 0 -0 -1 -1 -1 -1 -1 -2 -2 -2 -2 -1 -0 1 2 3 4 6 6
-1 -2 -3 -2 -2 -1 1 1 1 1 1 1 0 -0 0 1 1 2 3 4 4 5 4 2 1 -1 -2 -2 -2 -2 -3 -2 -2 -3 -3 -3 -1 -0 1 1 3 5 5 4
-2 -2 -1 -3 -0 -1 -0 -1 -1 0 -0 -1 -1 -1 -1 -0 1 3 4 4 4 2 1 0 -1 -3 -4 -4 -4 -4 -4 -4 -3 -3 -3 -3 -3 -2 -2 -1 1 1 1 1
-2 -3 -2 -2 -2 -0 -1 -1 -1 -1 -1 -2 -2 -2 -1 -0 1 3 2 1 1 0 -1 -2 -2 -3 -4 -4 -4 -5 -4 -4 -4 -4 -4 -4 -4 -4 -4 -4 -4 -3 -3 -3
-2 -2 -2 -1 -2 -1 -0 -0 -0 -2 -2 -2 -1 -1 -0 0 2 1 -0 -0 -1 -2 -2 -3 -4 -5 -5 -5 -5 -5 -5 -5 -5 -5 -5 -4 -4 -4 -4 -4 -5 -5 -4 -4
Height
854 853 852 848 845 842 839 836 824 833 831 824 822 818 827 830 820 818 817 815 811 807 806 803 799 796 796 801 801 797 795 794 793 783 781 786 784 777 779 787 782 783 786 756
853 852 852 849 846 844 843 837 833 832 831 818 817 823 824 825 822 818 817 814 812 810 809 811 800 798 804 805 802 798 797 793 793 773 788 789 784 778 781 782 783 784 779 740
852 852 851 849 847 846 845 838 826 829 828 830 828 826 821 822 824 823 822 818 815 813 809 805 804 802 803 805 806 808 804 796 794 789 774 775 781 777 773 774 779 770 753 740
850 850 851 849 847 847 847 841 832 835 823 827 831 829 827 826 824 823 821 818 822 822 816 805 804 803 806 802 804 804 801 795 788 783 784 785 780 775 772 769 764 768 739 741
848 849 850 848 848 847 847 840 837 836 832 834 835 832 825 828 826 829 820 824 830 825 826 818 820 823 812 808 802 802 800 797 791 790 781 776 773 763 755 750 751 751 746 741
845 847 848 848 848 848 847 848 846 841 837 833 832 827 829 837 840 835 836 838 838 831 824 824 822 821 820 816 812 810 807 805 804 791 778 775 762 733 737 735 736 736 744 732
842 845 846 846 848 849 849 847 844 841 830 835 831 834 838 838 838 841 836 835 834 829 830 825 818 811 806 803 799 802 801 800 806 796 789 779 729 731 731 733 729 733 734 734
840 842 845 846 847 849 850 849 848 843 836 834 837 838 838 838 836 836 836 835 834 833 831 821 803 783 786 782 782 784 787 796 795 794 776 753 738 737 733 732 735 736 737 733
837 840 843 844 846 847 849 850 850 850 847 835 836 840 839 838 832 830 831 831 833 834 825 819 810 788 774 774 783 791 791 788 789 778 791 762 742 741 740 736 731 740 737 735
836 838 840 841 843 844 847 847 849 852 849 843 843 840 837 837 837 835 830 831 830 831 823 815 803 790 781 784 769 782 793 797 792 783 775 755 741 745 744 739 745 743 739 736
835 837 839 841 841 841 845 846 848 850 848 843 844 842 839 838 839 836 831 834 825 829 824 811 796 788 782 785 771 771 776 784 789 787 784 774 751 746 745 752 747 745 743 740
833 836 839 840 842 843 844 846 848 850 850 843 840 839 837 835 836 837 836 832 826 827 825 819 814 807 804 792 788 775 776 766 765 763 754 747 749 755 754 754 751 748 747 744
831 834 837 841 841 842 844 846 848 848 847 839 835 829 832 829 831 834 836 830 830 830 829 826 821 818 806 807 786 778 775 773 771 766 752 747 753 753 752 749 752 750 748 747
829 834 837 841 840 842 843 844 846 848 848 847 831 828 827 827 826 826 830 831 830 831 833 829 823 819 809 802 793 786 784 778 778 767 762 756 748 745 746 749 750 749 749 749
831 833 836 842 840 842 842 843 844 844 849 840 832 829 824 824 822 822 825 828 828 827 825 823 820 816 811 799 794 785 783 777 776 760 758 754 750 750 750 750 750 748 747 743
832 830 837 839 842 842 840 841 842 842 849 844 834 823 823 821 819 818 818 820 822 823 823 821 815 811 810 798 782 766 766 768 769 763 760 757 753 752 751 749 747 746 745 744
830 833 835 840 842 841 839 841 845 845 847 843 836 829 821 820 816 815 814 815 817 818 821 816 809 803 802 796 782 747 766 765 760 754 754 750 746 742 742 742 741 740 739 739
830 832 836 837 840 839 837 839 844 845 846 842 839 832 825 821 814 812 812 810 813 815 811 804 797 794 798 789 763 761 756 752 750 749 749 745 740 738 736 733 734 732 732 732
828 831 833 836 836 836 838 840 841 843 846 838 836 834 826 820 816 813 810 808 807 802 803 797 792 788 782 765 761 766 766 764 759 754 750 745 737 727 725 723 722 723 722 723
827 831 832 834 836 837 838 840 841 842 840 840 835 830 829 823 818 815 810 802 798 792 783 784 788 773 762 770 773 770 768 766 761 755 746 742 734 728 720 717 714 714 714 715
828 830 833 836 836 836 838 840 841 839 838 833 831 828 824 818 822 815 811 805 796 788 773 777 763 759 779 777 775 771 767 762 757 752 745 739 733 727 722 715 713 710 709 709
829 830 833 835 837 839 841 839 839 838 828 826 825 826 825 821 820 816 810 807 797 785 777 772 756 779 781 779 774 768 764 757 750 745 738 731 726 721 717 712 707 706 703 703
828 832 836 837 840 838 835 834 827 822 826 827 828 829 825 820 818 812 808 800 791 774 774 755 775 783 782 779 773 766 760 754 746 738 732 724 716 711 708 703 700 700 698 699
830 834 840 835 835 832 825 822 824 827 828 828 829 828 825 817 815 803 796 782 774 759 759 773 782 787 785 779 774 767 759 752 744 735 727 718 707 698 695 696 695 694 694 696
830 833 830 834 827 828 828 831 830 829 831 830 829 828 828 819 810 794 783 773 768 782 786 790 793 792 789 782 775 768 761 754 745 737 728 720 712 705 701 698 696 696 697 698
831 832 830 830 829 825 828 829 830 831 831 832 833 830 823 812 800 784 787 787 786 794 799 799 798 795 791 785 779 773 766 759 750 742 734 728 721 715 712 708 707 706 706 707
828 828 827 827 828 826 825 827 828 831 833 830 826 822 812 805 791 789 798 799 802 804 803 803 802 799 795 790 784 778 771 764 757 750 742 736 731 726 721 718 719 716 716 716
Wind_Speed
7 9 11 11 14 14 6 4 2 5 5 3 0 2 2 3 4 1 3 4 8 8 9 8 5 5 2 4 2 3 1 5 5 10 4 5 8 6 4 3 2 5 5 8
5 5 8 9 11 10 6 2 2 2 3 2 2 1 3 3 4 4 3 4 2 3 3 5 5 5 4 4 3 4 2 3 6 2 3 1 4 5 6 7 9 12 7 6
2 3 6 8 10 7 3 3 2 2 1 2 2 4 2 2 2 7 4 7 7 8 10 10 8 5 0 4 5 4 3 7 11 12 17 15 19 17 15 13 10 14 18 24
3 3 6 7 9 7 3 2 1 3 0 3 3 3 3 5 4 2 3 3 3 5 5 7 12 7 8 5 1 3 4 13 14 15 17 19 23 23 22 20 21 16 26 18
6 4 4 5 8 6 2 2 2 3 3 2 4 2 1 5 4 4 3 5 8 7 5 9 10 8 9 8 4 4 2 9 11 17 19 17 20 23 26 24 21 19 24 25
10 6 3 3 5 4 2 0 1 3 3 1 3 2 2 1 5 2 3 2 7 9 11 9 10 10 12 14 14 13 14 9 8 13 16 18 17 10 4 2 3 15 14 12
12 9 5 2 3 2 1 1 1 2 2 3 4 2 2 6 7 10 10 13 14 6 12 15 18 21 24 24 23 19 17 13 6 7 13 9 5 13 11 9 3 6 12 13
11 11 7 4 3 2 2 2 1 1 3 3 6 7 7 8 9 10 11 13 9 9 11 8 9 7 10 12 17 19 20 17 10 6 9 18 22 2 3 2 6 7 7 8
12 12 9 7 7 6 4 2 2 1 2 1 3 2 4 6 8 8 6 4 9 4 3 5 5 4 5 3 4 2 6 13 11 7 5 5 5 3 6 4 6 12 9 9
12 10 8 7 9 10 7 3 7 2 3 4 4 5 4 4 6 5 9 3 4 6 6 8 9 11 10 5 6 4 3 4 15 13 10 9 8 7 5 4 5 11 10 9
10 10 9 6 6 11 7 5 6 3 2 5 7 10 11 8 6 7 5 7 3 3 4 4 6 6 5 6 10 5 5 5 5 7 6 11 9 4 5 5 7 9 12 12
16 12 8 7 7 7 5 3 5 3 4 5 8 13 18 21 20 10 8 8 4 2 4 2 3 6 6 10 7 6 9 7 4 7 5 4 3 5 6 4 7 9 11 14
15 11 10 9 7 4 3 2 3 2 4 6 8 7 11 15 22 19 9 10 13 13 12 8 6 7 7 8 9 14 13 4 6 10 8 11 11 13 13 11 7 9 11 13
15 13 11 8 5 2 1 1 2 1 3 3 4 7 8 4 6 12 17 21 20 15 5 7 6 9 7 10 14 14 12 16 12 17 17 18 19 13 7 4 10 13 13 14
15 12 9 6 3 1 1 4 5 6 4 3 6 22 14 4 13 18 16 17 14 9 9 9 10 10 10 12 14 13 15 21 14 17 17 17 19 19 22 20 18 17 18 18
12 9 7 5 3 1 3 1 2 1 10 3 3 6 8 11 3 10 14 16 9 9 4 5 8 18 10 8 12 20 18 19 22 22 25 24 24 22 24 21 19 17 15 13
10 8 6 4 3 3 1 2 2 6 3 2 4 4 2 7 4 2 3 8 5 5 3 6 11 10 7 8 16 30 18 18 20 21 20 22 22 18 19 19 18 23 18 16
8 5 3 3 6 6 5 5 11 8 4 2 3 4 5 3 3 3 3 3 5 4 4 4 7 6 5 6 12 15 16 15 16 18 17 21 24 22 21 23 18 18 15 13
6 4 5 4 2 3 3 1 1 6 6 2 2 2 4 3 3 3 2 2 3 4 4 4 4 5 7 10 13 14 14 12 15 18 19 20 22 22 18 19 18 17 16 14
2 0 2 2 3 4 4 2 1 2 3 2 3 2 4 3 3 3 3 2 3 3 6 3 4 6 11 14 15 14 15 15 16 16 17 16 15 16 18 17 16 14 13 13
3 2 1 3 2 2 1 1 2 2 2 3 3 4 5 3 3 3 2 3 3 3 3 4 4 2 8 15 16 15 16 17 17 18 20 19 20 18 17 18 16 14 14 13
4 6 5 3 2 1 2 2 2 4 2 1 2 4 5 4 2 3 3 3 3 6 2 3 3 5 14 15 18 19 17 18 20 23 19 20 19 22 17 17 16 17 18 16
5 4 2 0 1 3 4 4 3 2 2 2 4 6 3 2 3 3 3 5 6 2 3 2 3 11 14 15 14 16 20 21 21 20 24 25 24 26 23 17 23 21 18 15
2 2 2 3 3 3 2 1 1 2 2 5 5 4 3 3 4 4 5 6 4 4 2 4 6 13 15 15 14 15 17 18 19 17 18 16 14 9 14 19 18 15 9 2
2 2 3 4 1 1 1 1 2 0 2 3 4 3 3 3 5 4 5 4 1 3 4 5 8 12 12 14 15 15 15 15 15 18 13 13 16 10 13 14 12 11 10 11
2 1 1 2 1 2 1 2 3 0 1 3 2 3 3 5 4 5 2 5 3 3 4 6 8 11 11 12 13 14 19 18 18 20 19 18 18 15 15 20 21 20 20 19
2 2 2 3 3 3 2 1 2 3 2 2 3 4 5 4 4 0 2 3 4 5 5 5 8 10 11 12 16 19 21 20 21 21 23 21 21 22 23 15 20 23 24 26
Wind_Direction
291 314 323 341 344 345 354 288 240 356 339 238 231 263 6 336 315 302 293 284 280 277 305 292 276 286 358 6 307 275 34 311 286 272 8 282 262 260 275 292 271 246 269 270
290 317 333 344 352 0 327 318 299 359 307 259 210 153 261 269 294 300 304 273 270 315 280 286 265 284 128 26 330 339 69 244 301 217 146 165 234 197 258 284 286 267 261 262
228 336 339 350 351 345 333 280 240 136 210 45 296 291 255 268 245 275 280 289 286 282 266 257 274 283 131 323 292 343 299 256 260 272 294 321 291 275 276 265 264 265 255 274
208 310 328 343 353 340 315 294 45 6 203 148 295 283 308 301 302 249 280 221 347 332 285 286 264 287 301 259 257 246 252 266 270 274 288 292 282 280 276 256 248 248 267 284
208 251 314 343 356 351 278 295 290 174 294 277 261 179 275 290 298 265 251 300 339 312 286 304 296 325 287 281 280 271 229 277 305 285 288 282 287 278 271 255 249 253 262 273
207 228 272 331 348 8 282 128 263 294 85 203 259 279 8 76 316 87 336 71 328 308 306 318 305 283 275 266 270 273 273 276 295 275 291 315 285 265 296 241 234 234 241 270
206 217 231 246 325 355 279 150 206 218 205 218 237 295 246 270 280 280 289 291 288 293 334 302 275 260 254 252 254 245 252 250 248 286 302 256 228 311 286 253 255 241 264 289
207 208 220 222 263 263 211 186 235 228 260 279 266 264 275 282 272 269 275 295 312 325 300 294 296 260 241 246 254 256 232 241 253 244 255 286 291 53 80 272 131 34 335 328
204 197 212 232 232 220 204 229 215 352 306 234 250 246 280 289 291 278 233 298 319 286 273 260 260 276 342 277 183 357 236 234 222 220 240 263 52 37 348 305 186 10 355 345
189 201 219 229 223 209 198 168 201 220 232 276 254 254 279 313 279 273 289 331 287 271 260 258 265 266 255 261 263 166 147 193 217 225 245 265 331 344 329 249 28 355 350 347
188 178 158 141 149 177 175 159 184 192 212 257 232 247 257 257 250 269 291 317 167 259 256 262 268 278 277 279 272 274 229 210 204 222 233 254 3 295 317 24 16 13 6 356
153 154 158 143 147 159 186 148 172 208 235 272 287 269 258 254 262 280 278 258 294 325 277 262 302 293 305 301 281 325 252 261 296 217 222 86 35 2 347 333 339 12 4 356
159 156 144 148 149 165 155 137 192 225 278 280 251 248 272 249 243 244 254 246 247 266 276 297 293 271 287 272 267 275 282 302 269 292 261 272 327 302 289 278 296 344 360 353
141 146 146 159 180 183 129 161 207 254 298 280 297 303 277 275 236 233 237 255 273 276 284 280 267 271 267 268 280 271 273 297 293 284 284 287 282 296 353 306 283 304 317 327
150 149 144 166 179 180 290 280 258 230 231 289 299 299 298 305 251 231 234 241 243 249 254 247 253 265 270 257 261 257 249 254 256 262 278 280 291 299 310 308 308 307 311 313
157 150 153 155 199 188 19 9 354 301 209 282 298 315 296 322 312 236 242 235 238 235 228 239 244 242 265 272 269 263 261 252 249 265 269 277 286 292 290 291 292 291 295 299
152 151 157 200 229 239 204 12 113 111 166 275 290 286 293 312 311 243 250 219 215 233 234 231 255 264 253 264 264 271 283 283 277 276 286 282 275 272 276 281 283 284 281 283
156 159 191 242 253 268 276 265 241 222 265 252 280 286 301 356 317 294 190 218 203 216 230 254 252 252 210 248 268 282 284 287 266 265 270 265 276 278 275 277 274 271 268 268
158 201 262 278 158 181 131 241 128 208 233 270 239 278 302 1 288 285 250 243 235 217 223 231 245 222 229 260 291 348 336 324 307 302 293 287 281 280 272 268 267 262 264 258
165 187 135 152 129 98 349 76 156 222 195 235 257 230 263 298 293 281 280 238 256 256 213 189 222 253 274 8 346 331 324 316 310 301 293 290 290 292 288 279 275 267 263 265
120 105 95 95 75 35 61 165 222 196 243 210 227 236 278 271 254 271 267 299 279 267 172 218 226 215 1 343 330 326 321 316 305 293 286 284 283 282 278 280 279 276 258 253
122 103 94 80 74 113 207 195 182 221 248 196 4 353 301 295 232 254 232 260 261 253 129 243 245 26 348 337 331 326 324 318 312 308 300 290 282 275 271 269 272 273 263 240
94 68 83 165 130 197 221 193 206 213 81 33 333 328 293 287 244 245 250 239 235 246 228 235 53 348 342 335 330 327 326 326 321 315 310 299 288 275 261 257 258 266 253 240
93 134 180 219 179 230 204 175 60 52 301 327 324 293 259 248 251 232 248 229 259 252 343 25 1 344 336 333 334 335 334 334 333 329 323 319 314 294 253 244 248 250 239 214
148 174 221 207 231 235 134 354 280 268 326 328 318 276 247 260 260 244 238 244 42 23 19 332 336 335 330 334 339 341 342 341 340 342 344 350 358 16 44 38 58 82 90 91
155 177 205 188 232 193 203 233 269 70 13 318 248 258 260 249 247 236 34 311 16 11 337 336 332 336 337 341 344 345 343 349 352 358 1 14 21 28 42 55 58 65 72 74
209 228 258 251 295 264 280 225 314 123 331 264 256 240 236 293 252 67 23 12 347 335 337 344 348 342 341 343 351 354 354 360 4 8 13 20 30 41 45 46 48 63 66 70